This demonstration page uses our WeatherBlox Daily Observations layout. Learn more.

Left ArrowRight Arrow

Hourly Observations for May 30, 2016

Temp ( °F °C ) Dew Point ( °F °C ) Humidity (%) Winds ( mph kmh ) Pressure ( in mb ) Visibility ( mi km ) Precip ( " mm )
12:54 am 00:54 Clear 67 19.4 62 16.7 84 84 Calm 29.98 1015 10 16 0.00 0.00
1:54 am 01:54 Clear 67 19.4 59 15 76 76 Calm 29.96 1015 10 16 0.00 0.00
2:54 am 02:54 Clear 67 19.4 58 14.4 73 73 Calm 29.96 1015 10 16 0.00 0.00
3:54 am 03:54 Clear 66 18.9 59 15 78 78 WSW 3 6 29.95 1014 10 16 0.00 0.00
4:54 am 04:54 Clear 62 16.7 57 13.9 84 84 Calm 29.96 1014 10 16 0.00 0.00
5:54 am 05:54 Clear 61 16.1 57 13.9 87 87 S 3 6 29.99 1016 10 16 0.00 0.00
6:54 am 06:54 Sunny 63 17.2 60 15.6 90 90 Calm 29.99 1016 10 16 0.00 0.00
7:54 am 07:54 Sunny 67 19.4 60 15.6 79 79 N 6 9 29.99 1016 10 16 0.00 0.00
8:54 am 08:54 Sunny 69 20.6 59 15 70 70 ESE 3 6 29.99 1016 10 16 0.00 0.00
9:54 am 09:54 Sunny 74 23.3 62 16.7 67 67 SE 5 7 29.98 1015 10 16 0.00 0.00
10:54 am 10:54 Sunny 76 24.4 63 17.2 64 64 ESE 6 9 29.97 1015 10 16 0.00 0.00
11:54 am 11:54 Sunny 80 26.7 62 16.7 54 54 VRB 3 6 29.94 1014 10 16 0.00 0.00
12:54 pm 12:54 Sunny 82 27.8 61 16.1 49 49 S 12 19 29.93 1013 10 16 0.00 0.00
1:54 pm 13:54 Mostly Sunny 86 30 64 17.8 48 48 S 13 20 29.90 1012 10 16 0.00 0.00
2:54 pm 14:54 Sunny 85 29.4 63 17.2 48 48 S 15 24 29.87 1012 10 16 0.00 0.03
3:54 pm 15:54 Sunny 86 30 59 15 40 40 SW 16 26 29.85 1011 10 16 0.00 0.00
4:39 pm 16:39 Mostly Sunny 86 30 56 13.3 36 36 S 18 30 29.77 1008 10 16 0.00 0.03
4:54 pm 16:54 Sunny 87 30.6 55 12.8 34 34 SSW 16 26 29.83 1010 10 16 0.00 0.03
5:54 pm 17:54 Mostly Sunny 85 29.4 59 15 42 42 S 16 26 29.82 1010 10 16 0.00 0.00
6:54 pm 18:54 Sunny 84 28.9 55 12.8 37 37 SSW 13 20 29.80 1009 10 16 0.00 0.00
7:54 pm 19:54 Sunny 80 26.7 57 13.9 45 45 S 10 17 29.83 1010 10 16 0.00 0.00
8:54 pm 20:54 Mostly Clear 77 25 60 15.6 56 56 SE 10 17 29.83 1010 10 16 0.00 0.00
9:54 pm 21:54 Mostly Clear 73 22.8 63 17.2 71 71 SE 10 17 29.85 1011 10 16 0.00 0.00
10:54 pm 22:54 Clear 72 22.2 63 17.2 73 73 SE 12 19 29.87 1012 10 16 0.00 0.00
11:54 pm 23:54 Clear 72 22.2 61 16.1 68 68 S 13 20 29.86 1011 10 16 0.00 0.00

Powered by AerisWeather